Time,TemperatureF,DewpointF,PressureIn,WindDirection,WindDirectionDegrees,WindSpeedMPH,WindSpeedGustMPH,Humidity,HourlyPrecipIn,Conditions,Clouds,dailyrainin,SoftwareType,DateUTC
2013-03-24 00:00:00,31.9,20.4,29.85,NW,316,9.0,10.0,62,0.00,,OVC010,0.00,VWS V14.01,2013-03-24 04:00:00,
2013-03-24 00:01:00,31.9,20.4,29.85,NW,316,9.0,10.0,62,0.00,,BKN060,0.00,VWS V14.01,2013-03-24 04:01:00,
2013-03-24 00:10:00,31.8,20.7,29.85,WNW,303,2.0,7.0,63,0.00,,BKN055,0.00,VWS V14.01,2013-03-24 04:10:00,
2013-03-24 00:20:00,31.5,20.4,29.86,NW,311,5.0,7.0,63,0.00,,BKN055,0.00,VWS V14.01,2013-03-24 04:20:00,
2013-03-24 00:30:00,31.2,20.5,29.86,NW,311,2.0,8.0,64,0.00,,BKN055,0.00,VWS V14.01,2013-03-24 04:30:00,
2013-03-24 00:40:00,30.9,20.5,29.86,NW,319,1.0,4.0,65,0.00,,BKN055,0.00,VWS V14.01,2013-03-24 04:40:00,
2013-03-24 00:50:00,30.6,20.6,29.86,NW,307,1.0,3.0,66,0.00,,BKN055,0.00,VWS V14.01,2013-03-24 04:50:00,
2013-03-24 01:00:00,30.5,20.5,29.86,NW,314,1.0,5.0,66,0.00,,BKN055,0.00,VWS V14.01,2013-03-24 05:00:00,
2013-03-24 01:10:00,30.2,20.6,29.86,NW,316,2.0,4.0,67,0.00,,BKN055,0.00,VWS V14.01,2013-03-24 05:10:00,
2013-03-24 01:20:00,30.1,20.8,29.86,SSW,212,0.0,3.0,68,0.00,,BKN055,0.00,VWS V14.01,2013-03-24 05:20:00,
2013-03-24 01:30:00,29.8,20.9,29.85,NNE,15,1.0,4.0,69,0.00,,BKN055,0.00,VWS V14.01,2013-03-24 05:30:00,
2013-03-24 01:40:00,29.9,21.0,29.86,NW,319,0.0,3.0,69,0.00,,BKN055,0.00,VWS V14.01,2013-03-24 05:40:00,
2013-03-24 01:50:00,29.9,21.0,29.86,NW,319,1.0,6.0,69,0.00,,BKN055,0.00,VWS V14.01,2013-03-24 05:50:00,
2013-03-24 02:00:00,29.8,20.9,29.86,WSW,243,0.0,4.0,69,0.00,,BKN055,0.00,VWS V14.01,2013-03-24 06:00:00,
2013-03-24 02:10:00,29.3,20.7,29.86,West,259,0.0,1.0,70,0.00,,FEW060,0.00,VWS V14.01,2013-03-24 06:10:00,
2013-03-24 02:20:00,29.4,20.8,29.85,NW,308,0.0,3.0,70,0.00,,FEW060,0.00,VWS V14.01,2013-03-24 06:20:00,
2013-03-24 02:30:00,29.2,20.6,29.85,NW,309,0.0,3.0,70,0.00,,FEW060,0.00,VWS V14.01,2013-03-24 06:30:00,
2013-03-24 02:40:00,28.8,20.9,29.85,WNW,300,0.0,2.0,72,0.00,,FEW060,0.00,VWS V14.01,2013-03-24 06:40:00,
2013-03-24 02:50:00,28.8,20.9,29.84,West,263,0.0,3.0,72,0.00,,FEW060,0.00,VWS V14.01,2013-03-24 06:50:00,
2013-03-24 03:00:00,28.8,20.9,29.84,NW,316,1.0,4.0,72,0.00,,FEW060,0.00,VWS V14.01,2013-03-24 07:00:00,
2013-03-24 03:10:00,28.9,21.0,29.83,WNW,295,0.0,2.0,72,0.00,,CLR,0.00,VWS V14.01,2013-03-24 07:10:00,
2013-03-24 03:20:00,29.0,21.1,29.83,NW,326,0.0,3.0,72,0.00,,CLR,0.00,VWS V14.01,2013-03-24 07:20:00,
2013-03-24 03:30:00,28.9,21.0,29.82,NE,49,0.0,3.0,72,0.00,,CLR,0.00,VWS V14.01,2013-03-24 07:30:00,
2013-03-24 03:40:00,28.8,20.9,29.82,West,279,0.0,2.0,72,0.00,,CLR,0.00,VWS V14.01,2013-03-24 07:40:00,
2013-03-24 03:50:00,28.6,20.7,29.83,WNW,290,0.0,1.0,72,0.00,,CLR,0.00,VWS V14.01,2013-03-24 07:50:00,
2013-03-24 04:00:00,28.0,20.2,29.82,NE,37,0.0,0.0,72,0.00,,CLR,0.00,VWS V14.01,2013-03-24 08:00:00,
2013-03-24 04:10:00,28.4,20.9,29.82,NW,307,0.0,4.0,73,0.00,,FEW055,0.00,VWS V14.01,2013-03-24 08:10:00,
2013-03-24 04:20:00,28.2,20.7,29.81,WNW,286,0.0,1.0,73,0.00,,FEW055,0.00,VWS V14.01,2013-03-24 08:20:00,
2013-03-24 04:30:00,28.6,21.1,29.81,NNW,332,0.0,5.0,73,0.00,,FEW055,0.00,VWS V14.01,2013-03-24 08:30:00,
2013-03-24 04:40:00,28.4,21.2,29.82,West,273,1.0,4.0,74,0.00,,FEW055,0.00,VWS V14.01,2013-03-24 08:40:00,
2013-03-24 04:50:00,28.8,21.2,29.84,WNW,288,1.0,4.0,73,0.00,,FEW055,0.00,VWS V14.01,2013-03-24 08:50:00,
2013-03-24 05:00:00,28.9,21.4,29.84,NW,304,2.0,4.0,73,0.00,,FEW055,0.00,VWS V14.01,2013-03-24 09:00:00,
2013-03-24 05:10:00,29.0,21.1,29.84,WNW,299,0.0,3.0,72,0.00,,FEW055,0.00,VWS V14.01,2013-03-24 09:10:00,
2013-03-24 05:20:00,28.9,21.0,29.83,NW,326,7.0,7.0,72,0.00,,FEW055,0.00,VWS V14.01,2013-03-24 09:20:00,
2013-03-24 05:30:00,29.1,20.9,29.85,WNW,283,2.0,8.0,71,0.00,,FEW055,0.00,VWS V14.01,2013-03-24 09:30:00,
2013-03-24 05:40:00,29.0,20.8,29.85,NW,321,0.0,5.0,71,0.00,,FEW055,0.00,VWS V14.01,2013-03-24 09:40:00,
2013-03-24 05:50:00,28.6,20.7,29.84,WNW,295,4.0,4.0,72,0.00,,FEW055,0.00,VWS V14.01,2013-03-24 09:50:00,
2013-03-24 06:00:00,28.6,20.7,29.85,NW,304,1.0,4.0,72,0.00,,FEW055,0.00,VWS V14.01,2013-03-24 10:00:00,
2013-03-24 06:10:00,29.0,20.8,29.85,WNW,301,1.0,7.0,71,0.00,,FEW120,0.00,VWS V14.01,2013-03-24 10:10:00,
2013-03-24 06:20:00,29.0,20.8,29.86,WNW,283,2.0,9.0,71,0.00,,FEW120,0.00,VWS V14.01,2013-03-24 10:20:00,
2013-03-24 06:30:00,29.0,20.8,29.86,WSW,250,1.0,6.0,71,0.00,,FEW120,0.00,VWS V14.01,2013-03-24 10:30:00,
2013-03-24 06:40:00,28.8,20.9,29.86,NW,308,1.0,6.0,72,0.00,,FEW120,0.00,VWS V14.01,2013-03-24 10:40:00,
2013-03-24 06:50:00,28.9,20.7,29.86,West,276,0.0,6.0,71,0.00,,FEW120,0.00,VWS V14.01,2013-03-24 10:50:00,
2013-03-24 07:00:00,28.7,20.8,29.86,NNW,327,3.0,5.0,72,0.00,,FEW120,0.00,VWS V14.01,2013-03-24 11:00:00,
2013-03-24 07:10:00,28.8,20.6,29.85,SSE,150,1.0,4.0,71,0.00,,BKN046,0.00,VWS V14.01,2013-03-24 11:10:00,
2013-03-24 07:20:00,28.9,20.7,29.85,WNW,297,2.0,5.0,71,0.00,,BKN046,0.00,VWS V14.01,2013-03-24 11:20:00,
2013-03-24 07:30:00,29.1,20.5,29.85,ESE,119,1.0,6.0,70,0.00,,BKN046,0.00,VWS V14.01,2013-03-24 11:30:00,
2013-03-24 07:40:00,29.2,20.6,29.85,WNW,297,0.0,3.0,70,0.00,,BKN046,0.00,VWS V14.01,2013-03-24 11:40:00,
2013-03-24 07:50:00,30.1,21.2,29.85,NW,314,0.0,2.0,69,0.00,,BKN046,0.00,VWS V14.01,2013-03-24 11:50:00,
2013-03-24 08:00:00,31.3,21.6,29.86,North,354,0.0,1.0,67,0.00,,BKN046,0.00,VWS V14.01,2013-03-24 12:00:00,
2013-03-24 08:10:00,31.6,21.2,29.86,NW,320,6.0,6.0,65,0.00,,FEW046,0.00,VWS V14.01,2013-03-24 12:10:00,
2013-03-24 08:20:00,32.1,21.3,29.87,WNW,288,0.0,6.0,64,0.00,,FEW046,0.00,VWS V14.01,2013-03-24 12:20:00,
2013-03-24 08:30:00,32.7,21.9,29.87,NW,316,3.0,4.0,64,0.00,,FEW046,0.00,VWS V14.01,2013-03-24 12:30:00,
2013-03-24 08:40:00,33.3,21.7,29.87,North,356,1.0,6.0,62,0.00,,FEW046,0.00,VWS V14.01,2013-03-24 12:40:00,
2013-03-24 08:50:00,33.6,22.0,29.88,West,276,3.0,7.0,62,0.00,,FEW046,0.00,VWS V14.01,2013-03-24 12:50:00,
2013-03-24 09:00:00,33.9,21.9,29.88,NW,311,3.0,13.0,61,0.00,,FEW046,0.00,VWS V14.01,2013-03-24 13:00:00,
2013-03-24 09:10:00,33.7,22.1,29.87,WNW,287,2.0,17.0,62,0.00,,FEW044,0.00,VWS V14.01,2013-03-24 13:10:00,
2013-03-24 09:20:00,33.4,22.2,29.88,WNW,303,8.0,9.0,63,0.00,,FEW044,0.00,VWS V14.01,2013-03-24 13:20:00,
2013-03-24 09:30:00,33.3,22.1,29.87,NW,304,3.0,9.0,63,0.00,,FEW044,0.00,VWS V14.01,2013-03-24 13:30:00,
2013-03-24 09:40:00,33.4,22.2,29.88,NW,314,5.0,11.0,63,0.00,,FEW044,0.00,VWS V14.01,2013-03-24 13:40:00,
2013-03-24 09:50:00,33.3,22.1,29.88,North,9,4.0,9.0,63,0.00,,FEW044,0.00,VWS V14.01,2013-03-24 13:50:00,
2013-03-24 10:00:00,33.3,21.7,29.87,NW,323,6.0,12.0,62,0.00,,FEW044,0.00,VWS V14.01,2013-03-24 14:00:00,
2013-03-24 10:10:00,33.7,22.1,29.88,NNW,347,2.0,10.0,62,0.00,,SCT043,0.00,VWS V14.01,2013-03-24 14:10:00,
2013-03-24 10:20:00,33.9,22.3,29.87,NW,319,6.0,10.0,62,0.00,,SCT043,0.00,VWS V14.01,2013-03-24 14:20:00,
2013-03-24 10:30:00,34.4,22.4,29.87,WNW,283,4.0,11.0,61,0.00,,SCT043,0.00,VWS V14.01,2013-03-24 14:30:00,
2013-03-24 10:40:00,34.7,22.2,29.86,NNW,344,3.0,11.0,60,0.00,,SCT043,0.00,VWS V14.01,2013-03-24 14:40:00,
2013-03-24 10:50:00,34.9,22.4,29.86,NNW,328,4.0,12.0,60,0.00,,SCT043,0.00,VWS V14.01,2013-03-24 14:50:00,
2013-03-24 11:00:00,34.7,22.2,29.85,NW,311,6.0,9.0,60,0.00,,SCT043,0.00,VWS V14.01,2013-03-24 15:00:00,
2013-03-24 11:10:00,35.0,22.5,29.85,NW,316,4.0,12.0,60,0.00,,BKN043,0.00,VWS V14.01,2013-03-24 15:10:00,
2013-03-24 11:20:00,35.4,22.5,29.85,NW,311,5.0,12.0,59,0.00,,BKN043,0.00,VWS V14.01,2013-03-24 15:20:00,
2013-03-24 11:30:00,35.3,22.8,29.85,NW,319,3.0,11.0,60,0.00,,BKN043,0.00,VWS V14.01,2013-03-24 15:30:00,
2013-03-24 11:40:00,35.6,23.1,29.85,West,261,3.0,10.0,60,0.00,,BKN043,0.00,VWS V14.01,2013-03-24 15:40:00,
2013-03-24 11:50:00,36.0,23.1,29.85,West,270,2.0,9.0,59,0.00,,BKN043,0.00,VWS V14.01,2013-03-24 15:50:00,
2013-03-24 12:00:00,36.7,22.9,29.85,NNW,332,4.0,11.0,57,0.00,,BKN043,0.00,VWS V14.01,2013-03-24 16:00:00,
2013-03-24 12:10:00,37.1,23.3,29.84,NNW,343,2.0,8.0,57,0.00,,BKN045,0.00,VWS V14.01,2013-03-24 16:10:00,
2013-03-24 12:20:00,37.6,23.8,29.83,West,281,2.0,9.0,57,0.00,,BKN045,0.00,VWS V14.01,2013-03-24 16:20:00,
2013-03-24 12:30:00,38.6,24.3,29.82,NNW,333,7.0,10.0,56,0.00,,BKN045,0.00,VWS V14.01,2013-03-24 16:30:00,
2013-03-24 12:40:00,38.1,23.8,29.81,WNW,283,1.0,9.0,56,0.00,,BKN045,0.00,VWS V14.01,2013-03-24 16:40:00,
2013-03-24 12:50:00,38.5,23.8,29.81,NNW,330,3.0,10.0,55,0.00,,BKN045,0.00,VWS V14.01,2013-03-24 16:50:00,
2013-03-24 13:00:00,39.2,24.0,29.81,WNW,284,4.0,8.0,54,0.00,,BKN045,0.00,VWS V14.01,2013-03-24 17:00:00,
2013-03-24 13:10:00,38.8,23.1,29.80,WNW,290,6.0,12.0,53,0.00,,SCT047,0.00,VWS V14.01,2013-03-24 17:10:00,
2013-03-24 13:20:00,38.9,24.1,29.81,NNE,23,5.0,9.0,55,0.00,,SCT047,0.00,VWS V14.01,2013-03-24 17:20:00,
2013-03-24 13:30:00,39.9,24.2,29.80,NW,314,6.0,8.0,53,0.00,,SCT047,0.00,VWS V14.01,2013-03-24 17:30:00,
2013-03-24 13:40:00,39.6,24.3,29.79,NNE,22,2.0,10.0,54,0.00,,SCT047,0.00,VWS V14.01,2013-03-24 17:40:00,
2013-03-24 13:50:00,39.6,24.3,29.79,NNW,330,2.0,10.0,54,0.00,,SCT047,0.00,VWS V14.01,2013-03-24 17:50:00,
2013-03-24 14:00:00,39.5,23.8,29.78,NW,323,6.0,12.0,53,0.00,,SCT047,0.00,VWS V14.01,2013-03-24 18:00:00,
2013-03-24 14:10:00,40.0,24.7,29.78,NNW,340,1.0,8.0,54,0.00,,SCT240,0.00,VWS V14.01,2013-03-24 18:10:00,
2013-03-24 14:20:00,40.5,24.3,29.78,WNW,293,3.0,7.0,52,0.00,,SCT240,0.00,VWS V14.01,2013-03-24 18:20:00,
2013-03-24 14:30:00,40.6,24.8,29.77,WNW,287,3.0,10.0,53,0.00,,OVC010,0.00,VWS V14.01,2013-03-24 18:30:00,
2013-03-24 14:31:00,40.6,24.8,29.77,WNW,287,3.0,10.0,53,0.00,,SCT240,0.00,VWS V14.01,2013-03-24 18:31:00,
2013-03-24 14:40:00,41.3,25.0,29.76,NNW,327,2.0,8.0,52,0.00,,SCT240,0.00,VWS V14.01,2013-03-24 18:40:00,
2013-03-24 14:50:00,41.6,25.3,29.76,NE,56,2.0,7.0,52,0.00,,SCT240,0.00,VWS V14.01,2013-03-24 18:50:00,
2013-03-24 15:00:00,42.2,24.9,29.75,NNW,336,1.0,7.0,50,0.00,,OVC010,0.00,VWS V14.01,2013-03-24 19:00:00,
2013-03-24 15:01:00,42.2,24.9,29.75,NNW,336,1.0,7.0,50,0.00,,SCT240,0.00,VWS V14.01,2013-03-24 19:01:00,
2013-03-24 15:10:00,42.6,24.8,29.74,WNW,283,1.0,8.0,49,0.00,,SCT250,0.00,VWS V14.01,2013-03-24 19:10:00,
2013-03-24 15:20:00,43.1,25.7,29.73,West,270,0.0,5.0,50,0.00,,SCT250,0.00,VWS V14.01,2013-03-24 19:20:00,
2013-03-24 15:30:00,42.6,24.8,29.73,North,360,2.0,9.0,49,0.00,,OVC010,0.00,VWS V14.01,2013-03-24 19:30:00,
2013-03-24 15:31:00,42.6,24.8,29.73,North,360,2.0,9.0,49,0.00,,SCT250,0.00,VWS V14.01,2013-03-24 19:31:00,
2013-03-24 15:40:00,43.0,24.7,29.72,NNW,338,2.0,5.0,48,0.00,,SCT250,0.00,VWS V14.01,2013-03-24 19:40:00,
2013-03-24 15:50:00,43.4,25.5,29.72,NNW,347,2.0,5.0,49,0.00,,SCT250,0.00,VWS V14.01,2013-03-24 19:50:00,
2013-03-24 16:00:00,43.9,25.5,29.72,WNW,291,1.0,4.0,48,0.00,,SCT250,0.00,VWS V14.01,2013-03-24 20:00:00,
2013-03-24 16:10:00,43.5,25.1,29.72,NE,55,0.0,4.0,48,0.00,,BKN250,0.00,VWS V14.01,2013-03-24 20:10:00,
2013-03-24 16:20:00,42.7,24.4,29.72,NE,47,2.0,5.0,48,0.00,,BKN250,0.00,VWS V14.01,2013-03-24 20:20:00,
2013-03-24 16:30:00,43.2,25.4,29.71,ENE,67,1.0,5.0,49,0.00,,OVC010,0.00,VWS V14.01,2013-03-24 20:30:00,
2013-03-24 16:31:00,43.2,25.4,29.71,ENE,67,1.0,5.0,49,0.00,,BKN250,0.00,VWS V14.01,2013-03-24 20:31:00,
2013-03-24 16:40:00,43.3,24.4,29.71,NW,313,3.0,5.0,47,0.00,,BKN250,0.00,VWS V14.01,2013-03-24 20:40:00,
2013-03-24 16:50:00,42.8,24.5,29.71,NW,312,1.0,6.0,48,0.00,,BKN250,0.00,VWS V14.01,2013-03-24 20:50:00,
2013-03-24 17:00:00,43.0,25.2,29.71,NW,314,0.0,3.0,49,0.00,,OVC010,0.00,VWS V14.01,2013-03-24 21:00:00,
2013-03-24 17:01:00,43.0,25.2,29.71,NW,314,0.0,3.0,49,0.00,,BKN250,0.00,VWS V14.01,2013-03-24 21:01:00,
2013-03-24 17:10:00,42.9,25.1,29.71,North,358,1.0,2.0,49,0.00,,BKN250,0.00,VWS V14.01,2013-03-24 21:10:00,
2013-03-24 17:20:00,42.8,25.5,29.71,WNW,290,0.0,5.0,50,0.00,,BKN250,0.00,VWS V14.01,2013-03-24 21:20:00,
2013-03-24 17:30:00,42.5,24.2,29.71,WNW,297,1.0,6.0,48,0.00,,OVC010,0.00,VWS V14.01,2013-03-24 21:30:00,
2013-03-24 17:40:00,42.2,24.4,29.71,NW,326,0.0,5.0,49,0.00,,BKN250,0.00,VWS V14.01,2013-03-24 21:40:00,
2013-03-24 17:50:00,42.1,24.8,29.70,NNW,330,0.0,5.0,50,0.00,,BKN250,0.00,VWS V14.01,2013-03-24 21:50:00,
2013-03-24 18:00:00,41.9,24.6,29.70,NW,314,1.0,3.0,50,0.00,,BKN250,0.00,VWS V14.01,2013-03-24 22:00:00,
2013-03-24 18:10:00,41.8,24.5,29.70,NW,314,1.0,5.0,50,0.00,,BKN250,0.00,VWS V14.01,2013-03-24 22:10:00,
2013-03-24 18:20:00,41.5,24.3,29.70,West,277,2.0,5.0,50,0.00,,BKN250,0.00,VWS V14.01,2013-03-24 22:20:00,
2013-03-24 18:30:00,41.1,24.4,29.70,ESE,103,0.0,3.0,51,0.00,,BKN250,0.00,VWS V14.01,2013-03-24 22:30:00,
2013-03-24 18:40:00,40.7,24.5,29.70,NE,53,0.0,2.0,52,0.00,,BKN250,0.00,VWS V14.01,2013-03-24 22:40:00,
2013-03-24 18:50:00,40.3,24.5,29.71,NE,54,0.0,1.0,53,0.00,,BKN250,0.00,VWS V14.01,2013-03-24 22:50:00,
2013-03-24 19:00:00,39.7,24.4,29.71,NE,54,0.0,0.0,54,0.00,,BKN250,0.00,VWS V14.01,2013-03-24 23:00:00,
2013-03-24 19:10:00,38.9,23.7,29.71,NE,52,0.0,0.0,54,0.00,,OVC230,0.00,VWS V14.01,2013-03-24 23:10:00,
2013-03-24 19:20:00,38.5,23.8,29.71,NE,54,0.0,0.0,55,0.00,,OVC230,0.00,VWS V14.01,2013-03-24 23:20:00,
2013-03-24 19:30:00,38.4,24.1,29.71,NE,52,0.0,1.0,56,0.00,,OVC230,0.00,VWS V14.01,2013-03-24 23:30:00,
2013-03-24 19:40:00,38.6,24.3,29.71,NNE,18,1.0,4.0,56,0.00,,OVC230,0.00,VWS V14.01,2013-03-24 23:40:00,
2013-03-24 19:50:00,38.7,24.4,29.71,NNE,32,1.0,6.0,56,0.00,,OVC230,0.00,VWS V14.01,2013-03-24 23:50:00,
2013-03-24 20:00:00,38.6,24.3,29.72,East,90,1.0,5.0,56,0.00,,OVC230,0.00,VWS V14.01,2013-03-25 00:00:00,
2013-03-24 20:10:00,38.4,24.5,29.72,NE,47,0.0,3.0,57,0.00,,OVC230,0.00,VWS V14.01,2013-03-25 00:10:00,
2013-03-24 20:20:00,38.0,24.5,29.73,NE,52,0.0,3.0,58,0.00,,OVC230,0.00,VWS V14.01,2013-03-25 00:20:00,
2013-03-24 20:30:00,37.8,24.4,29.74,NE,34,0.0,3.0,58,0.00,,OVC230,0.00,VWS V14.01,2013-03-25 00:30:00,
2013-03-24 20:40:00,37.5,24.5,29.75,NNE,30,0.0,3.0,59,0.00,,OVC230,0.00,VWS V14.01,2013-03-25 00:40:00,
2013-03-24 20:50:00,36.8,24.2,29.76,NNE,30,0.0,0.0,60,0.00,,OVC230,0.00,VWS V14.01,2013-03-25 00:50:00,
2013-03-24 21:00:00,36.3,24.2,29.76,NNE,30,0.0,1.0,61,0.00,,OVC010,0.00,VWS V14.01,2013-03-25 01:00:00,
2013-03-24 21:01:00,36.3,24.1,29.76,NNE,30,0.0,1.0,61,0.00,,OVC230,0.00,VWS V14.01,2013-03-25 01:01:00,
2013-03-24 21:10:00,36.1,24.4,29.75,NNE,30,0.0,0.0,62,0.00,,BKN240,0.00,VWS V14.01,2013-03-25 01:10:00,
2013-03-24 21:20:00,36.3,24.5,29.75,NE,44,1.0,3.0,62,0.00,,BKN240,0.00,VWS V14.01,2013-03-25 01:20:00,
2013-03-24 21:30:00,36.5,24.3,29.75,ENE,64,0.0,2.0,61,0.00,,BKN240,0.00,VWS V14.01,2013-03-25 01:30:00,
2013-03-24 21:40:00,36.6,24.4,29.75,ENE,61,1.0,2.0,61,0.00,,BKN240,0.00,VWS V14.01,2013-03-25 01:40:00,
2013-03-24 21:50:00,36.5,24.3,29.75,NE,43,1.0,4.0,61,0.00,,BKN240,0.00,VWS V14.01,2013-03-25 01:50:00,
2013-03-24 22:00:00,36.3,24.5,29.75,ENE,58,0.0,3.0,62,0.00,,BKN240,0.00,VWS V14.01,2013-03-25 02:00:00,
2013-03-24 22:10:00,36.2,24.1,29.75,ENE,60,1.0,6.0,61,0.00,,OVC220,0.00,VWS V14.01,2013-03-25 02:10:00,
2013-03-24 22:20:00,36.2,24.1,29.75,NE,44,1.0,5.0,61,0.00,,OVC220,0.00,VWS V14.01,2013-03-25 02:20:00,
2013-03-24 22:30:00,36.1,24.4,29.74,NE,43,0.0,5.0,62,0.00,,OVC220,0.00,VWS V14.01,2013-03-25 02:30:00,
2013-03-24 22:40:00,35.9,24.2,29.74,NE,55,2.0,4.0,62,0.00,,OVC220,0.00,VWS V14.01,2013-03-25 02:40:00,
2013-03-24 22:50:00,35.7,24.0,29.74,ENE,65,1.0,5.0,62,0.00,,OVC220,0.00,VWS V14.01,2013-03-25 02:50:00,
2013-03-24 23:00:00,35.5,24.2,29.74,NE,37,2.0,4.0,63,0.00,,OVC220,0.00,VWS V14.01,2013-03-25 03:00:00,
2013-03-24 23:10:00,35.4,24.1,29.74,ENE,58,0.0,3.0,63,0.00,,OVC220,0.00,VWS V14.01,2013-03-25 03:10:00,
2013-03-24 23:20:00,35.2,23.9,29.74,ENE,63,1.0,6.0,63,0.00,,OVC220,0.00,VWS V14.01,2013-03-25 03:20:00,
2013-03-24 23:30:00,35.1,23.8,29.74,NE,49,3.0,6.0,63,0.00,,OVC220,0.00,VWS V14.01,2013-03-25 03:30:00,
2013-03-24 23:40:00,34.9,24.0,29.74,NE,56,3.0,7.0,64,0.00,,OVC220,0.00,VWS V14.01,2013-03-25 03:40:00,
2013-03-24 23:50:00,34.7,23.8,29.74,NE,52,2.0,6.0,64,0.00,,OVC220,0.00,VWS V14.01,2013-03-25 03:50:00,